| time (UTC) | temp F | wind direction | speed MPH | gust MPH | rain 1hr in | rain 24hr in | rain mn in | humidity % | barometer mb |
| 20260510114400 | 31 | 103 | 0.0 | 2.0 | 0.00 | 0.00 | 0.00 | 83 | 1020.8 |
| 20260510113903 | 31 | 120 | 0.0 | 3.0 | 0.00 | 0.00 | 0.00 | 84 | 1020.5 |
| 20260510113401 | 31 | 128 | 2.0 | 4.0 | 0.00 | 0.00 | 0.00 | 84 | 1020.7 |
| 20260510112900 | 31 | 114 | 0.0 | 4.0 | 0.00 | 0.00 | 0.00 | 85 | 1020.6 |
| 20260510112402 | 31 | 154 | 2.0 | 3.0 | 0.00 | 0.00 | 0.00 | 86 | 1020.1 |
| 20260510111920 | 30 | 157 | 0.0 | 3.0 | 0.00 | 0.00 | 0.00 | 87 | 1020.3 |
| 20260510111400 | 30 | 90 | 0.0 | 2.0 | 0.00 | 0.00 | 0.00 | 88 | 1020.1 |
| 20260510110903 | 30 | 135 | 2.0 | 2.0 | 0.00 | 0.00 | 0.00 | 89 | 1020.1 |
| 20260510110403 | 29 | 111 | 1.0 | 2.0 | 0.00 | 0.00 | 0.00 | 90 | 1020.1 |
| 20260510105901 | 29 | 97 | 0.0 | 2.0 | 0.00 | 0.00 | 0.00 | 89 | 1019.7 |
| 20260510104400 | 29 | 75 | 0.0 | 1.0 | 0.00 | 0.00 | 0.00 | 88 | 1019.6 |
| 20260510103401 | 30 | 157 | 0.0 | 2.0 | 0.00 | 0.00 | 0.00 | 87 | 1019.4 |
| 20260510102903 | 31 | 82 | 0.0 | 2.0 | 0.00 | 0.00 | 0.00 | 86 | 1019.4 |
| 20260510102400 | 31 | 114 | 0.0 | 2.0 | 0.00 | 0.00 | 0.00 | 85 | 1019.4 |
| 20260510101900 | 32 | 96 | 0.0 | 2.0 | 0.00 | 0.00 | 0.00 | 84 | 1019.4 |
| 20260510101401 | 32 | 90 | 0.0 | 3.0 | 0.00 | 0.00 | 0.00 | 83 | 1019.3 |
| 20260510100403 | 32 | 114 | 1.0 | 4.0 | 0.00 | 0.00 | 0.00 | 83 | 1019.2 |
| 20260510095901 | 33 | 159 | 2.0 | 4.0 | 0.00 | 0.00 | 0.00 | 83 | 1019.3 |
| 20260510095401 | 33 | 157 | 1.0 | 2.0 | 0.00 | 0.00 | 0.00 | 84 | 1019.1 |
| 20260510094900 | 32 | 151 | 1.0 | 2.0 | 0.00 | 0.00 | 0.00 | 84 | 1019.1 |
| 20260510094400 | 33 | 66 | 1.0 | 2.0 | 0.00 | 0.00 | 0.00 | 82 | 1019.0 |
| 20260510093903 | 33 | 102 | 0.0 | 3.0 | 0.00 | 0.00 | 0.00 | 81 | 1019.1 |
| 20260510093402 | 34 | 144 | 2.0 | 3.0 | 0.00 | 0.00 | 0.00 | 81 | 1019.0 |
| 20260510092901 | 34 | 154 | 2.0 | 4.0 | 0.00 | 0.00 | 0.00 | 80 | 1018.7 |
| 20260510091900 | 35 | 150 | 2.0 | 4.0 | 0.00 | 0.00 | 0.00 | 79 | 1018.7 |
| 20260510090901 | 35 | 174 | 2.0 | 4.0 | 0.00 | 0.00 | 0.00 | 79 | 1018.8 |
| 20260510090403 | 35 | 157 | 1.0 | 4.0 | 0.00 | 0.00 | 0.00 | 78 | 1018.4 |
| 20260510085903 | 36 | 132 | 2.0 | 4.0 | 0.00 | 0.00 | 0.00 | 78 | 1018.6 |
| 20260510085402 | 36 | 180 | 1.0 | 6.0 | 0.00 | 0.00 | 0.00 | 77 | 1018.2 |
| 20260510084901 | 36 | 67 | 2.0 | 6.0 | 0.00 | 0.00 | 0.00 | 76 | 1018.0 |
| 20260510084400 | 37 | 191 | 1.0 | 5.0 | 0.00 | 0.00 | 0.00 | 75 | 1018.2 |
| 20260510083402 | 37 | 171 | 2.0 | 5.0 | 0.00 | 0.00 | 0.00 | 74 | 1018.0 |
| 20260510082901 | 37 | 139 | 2.0 | 4.0 | 0.00 | 0.00 | 0.00 | 75 | 1017.9 |
| 20260510082402 | 37 | 151 | 0.0 | 4.0 | 0.00 | 0.00 | 0.00 | 74 | 1017.9 |
| 20260510081902 | 37 | 160 | 3.0 | 3.0 | 0.00 | 0.00 | 0.00 | 73 | 1017.8 |
| 20260510081400 | 38 | 120 | 2.0 | 4.0 | 0.00 | 0.00 | 0.00 | 73 | 1017.9 |
| 20260510080901 | 38 | 111 | 0.0 | 4.0 | 0.00 | 0.00 | 0.00 | 73 | 1017.7 |
| 20260510080359 | 38 | 98 | 1.0 | 4.0 | 0.00 | 0.00 | 0.00 | 73 | 1017.7 |
| 20260510075856 | 38 | 152 | 0.0 | 4.0 | 0.00 | 0.00 | 0.00 | 73 | 1017.7 |
| 20260510075358 | 38 | 131 | 1.0 | 4.0 | 0.00 | 0.00 | 0.00 | 76 | 1017.8 |
| 20260510074848 | 39 | 160 | 1.0 | 4.0 | 0.00 | 0.00 | 0.00 | 76 | 1017.6 |
| 20260510074346 | 39 | 107 | 0.0 | 4.0 | 0.00 | 0.00 | 0.00 | 76 | 1017.5 |
| 20260510073847 | 39 | 145 | 0.0 | 5.0 | 0.00 | 0.00 | 0.00 | 77 | 1017.5 |
| 20260510073346 | 39 | 144 | 2.0 | 5.0 | 0.00 | 0.00 | 0.00 | 76 | 1017.6 |
| 20260510072848 | 39 | 147 | 2.0 | 4.0 | 0.00 | 0.00 | 0.00 | 76 | 1017.4 |
| 20260510072347 | 39 | 135 | 2.0 | 4.0 | 0.00 | 0.00 | 0.00 | 76 | 1017.5 |
| 20260510071845 | 40 | 160 | 1.0 | 4.0 | 0.00 | 0.00 | 0.00 | 76 | 1017.3 |
| 20260510071346 | 40 | 132 | 2.0 | 5.0 | 0.00 | 0.00 | 0.00 | 75 | 1017.3 |
| 20260510070845 | 40 | 139 | 2.0 | 5.0 | 0.00 | 0.00 | 0.00 | 75 | 1017.3 |
| 20260510070345 | 40 | 202 | 3.0 | 3.0 | 0.00 | 0.00 | 0.00 | 75 | 1017.3 |
| 20260510064846 | 40 | 150 | 2.0 | 4.0 | 0.00 | 0.00 | 0.00 | 74 | 1017.1 |
| 20260510063345 | 40 | 190 | 2.0 | 2.0 | 0.00 | 0.00 | 0.00 | 69 | 1017.1 |
| 20260510062843 | 40 | 165 | 0.0 | 3.0 | 0.00 | 0.00 | 0.00 | 68 | 1017.0 |
| 20260510062344 | 40 | 157 | 0.0 | 3.0 | 0.00 | 0.00 | 0.00 | 67 | 1017.0 |
| 20260510061845 | 41 | 168 | 2.0 | 2.0 | 0.00 | 0.00 | 0.00 | 67 | 1016.9 |
| 20260510061344 | 41 | 145 | 0.0 | 3.0 | 0.00 | 0.00 | 0.00 | 66 | 1016.7 |
| 20260510060845 | 42 | 215 | 1.0 | 4.0 | 0.00 | 0.00 | 0.00 | 65 | 1016.7 |
| 20260510060343 | 42 | 165 | 2.0 | 4.0 | 0.00 | 0.00 | 0.00 | 64 | 1016.5 |
| 20260510055841 | 42 | 154 | 0.0 | 4.0 | 0.00 | 0.00 | 0.00 | 64 | 1016.7 |
| 20260510054834 | 42 | 154 | 2.0 | 3.0 | 0.00 | 0.00 | 0.00 | 64 | 1016.4 |
| 20260510054330 | 42 | 173 | 0.0 | 3.0 | 0.00 | 0.00 | 0.00 | 65 | 1016.5 |
| 20260510053830 | 42 | 138 | 0.0 | 4.0 | 0.00 | 0.00 | 0.00 | 63 | 1016.5 |
| 20260510053331 | 43 | 114 | 0.0 | 4.0 | 0.00 | 0.00 | 0.00 | 63 | 1016.3 |
| 20260510052831 | 42 | 135 | 0.0 | 4.0 | 0.00 | 0.00 | 0.00 | 65 | 1016.4 |
| 20260510052331 | 43 | 173 | 0.0 | 4.0 | 0.00 | 0.00 | 0.00 | 64 | 1016.2 |
| 20260510051829 | 42 | 97 | 0.0 | 3.0 | 0.00 | 0.00 | 0.00 | 65 | 1016.1 |
| 20260510051350 | 42 | 72 | 0.0 | 3.0 | 0.00 | 0.00 | 0.00 | 65 | 1015.8 |
| 20260510050831 | 43 | 157 | 0.0 | 3.0 | 0.00 | 0.00 | 0.00 | 65 | 1016.3 |
| 20260510050329 | 43 | 102 | 0.0 | 3.0 | 0.00 | 0.00 | 0.00 | 64 | 1016.2 |
| 20260510045829 | 43 | 117 | 0.0 | 3.0 | 0.00 | 0.00 | 0.00 | 63 | 1016.1 |
| 20260510045331 | 43 | 114 | 1.0 | 3.0 | 0.00 | 0.00 | 0.00 | 63 | 1015.8 |
| 20260510044830 | 43 | 106 | 0.0 | 4.0 | 0.00 | 0.00 | 0.00 | 63 | 1016.1 |
| 20260510044348 | 43 | 148 | 1.0 | 4.0 | 0.00 | 0.00 | 0.00 | 62 | 1016.1 |
| 20260510043828 | 43 | 126 | 0.0 | 4.0 | 0.00 | 0.00 | 0.00 | 62 | 1016.1 |
| 20260510043330 | 44 | 126 | 1.0 | 3.0 | 0.00 | 0.00 | 0.00 | 61 | 1016.1 |
| 20260510042831 | 44 | 195 | 2.0 | 4.0 | 0.00 | 0.00 | 0.00 | 61 | 1015.8 |
| 20260510042329 | 44 | 101 | 2.0 | 4.0 | 0.00 | 0.00 | 0.00 | 61 | 1015.8 |
| 20260510041829 | 44 | 157 | 1.0 | 4.0 | 0.00 | 0.00 | 0.00 | 62 | 1015.9 |
| 20260510040830 | 44 | 157 | 0.0 | 4.0 | 0.00 | 0.00 | 0.00 | 62 | 1015.6 |
| 20260510040330 | 44 | 160 | 0.0 | 4.0 | 0.00 | 0.00 | 0.00 | 62 | 1015.9 |
| 20260510035831 | 44 | 180 | 0.0 | 3.0 | 0.00 | 0.00 | 0.00 | 62 | 1015.9 |
| 20260510034831 | 44 | 247 | 2.0 | 4.0 | 0.00 | 0.00 | 0.00 | 61 | 1015.9 |
| 20260510034331 | 44 | 169 | 1.0 | 4.0 | 0.00 | 0.00 | 0.00 | 60 | 1015.7 |
| 20260510033830 | 44 | 173 | 1.0 | 5.0 | 0.00 | 0.00 | 0.00 | 60 | 1015.8 |
| 20260510033332 | 44 | 168 | 2.0 | 8.0 | 0.00 | 0.00 | 0.00 | 59 | 1015.9 |
| 20260510032832 | 45 | 114 | 1.0 | 8.0 | 0.00 | 0.00 | 0.00 | 59 | 1015.7 |
| 20260510032330 | 45 | 208 | 4.0 | 5.0 | 0.00 | 0.00 | 0.00 | 59 | 1015.6 |
| 20260510031832 | 45 | 151 | 2.0 | 5.0 | 0.00 | 0.00 | 0.00 | 59 | 1015.6 |
| 20260510030830 | 45 | 180 | 1.0 | 4.0 | 0.00 | 0.00 | 0.00 | 57 | 1015.5 |
| 20260510025830 | 46 | 184 | 2.0 | 5.0 | 0.00 | 0.00 | 0.00 | 55 | 1015.3 |
| 20260510025329 | 46 | 161 | 3.0 | 3.0 | 0.00 | 0.00 | 0.00 | 54 | 1015.3 |
| 20260510024829 | 46 | 196 | 2.0 | 3.0 | 0.00 | 0.00 | 0.00 | 53 | 1015.4 |
| 20260510024331 | 46 | 146 | 2.0 | 3.0 | 0.00 | 0.00 | 0.00 | 53 | 1015.5 |
| 20260510023828 | 46 | 163 | 2.0 | 4.0 | 0.00 | 0.00 | 0.00 | 53 | 1015.1 |
| 20260510023330 | 46 | 90 | 0.0 | 4.0 | 0.00 | 0.00 | 0.00 | 53 | 1015.0 |
| 20260510022828 | 46 | 165 | 2.0 | 4.0 | 0.00 | 0.00 | 0.00 | 51 | 1015.3 |
| 20260510022328 | 46 | 131 | 1.0 | 4.0 | 0.00 | 0.00 | 0.00 | 51 | 1015.0 |
| 20260510021828 | 46 | 144 | 0.0 | 4.0 | 0.00 | 0.00 | 0.00 | 51 | 1014.9 |
| 20260510021327 | 46 | 180 | 0.0 | 5.0 | 0.00 | 0.00 | 0.00 | 51 | 1014.9 |
| 20260510020824 | 46 | 176 | 2.0 | 5.0 | 0.00 | 0.00 | 0.00 | 50 | 1014.8 |
| 20260510020322 | 46 | 143 | 2.0 | 4.0 | 0.00 | 0.00 | 0.00 | 50 | 1014.7 |
| 20260510015820 | 46 | 203 | 0.0 | 4.0 | 0.00 | 0.00 | 0.00 | 50 | 1014.6 |
| 20260510014318 | 46 | 152 | 2.0 | 8.0 | 0.00 | 0.00 | 0.00 | 49 | 1014.4 |
| 20260510013818 | 47 | 126 | 3.0 | 9.0 | 0.00 | 0.00 | 0.00 | 48 | 1014.2 |
| 20260510013319 | 47 | 163 | 6.0 | 9.0 | 0.00 | 0.00 | 0.00 | 48 | 1014.3 |
| 20260510012819 | 47 | 185 | 1.0 | 6.0 | 0.00 | 0.00 | 0.00 | 48 | 1014.0 |
| 20260510012318 | 47 | 151 | 2.0 | 6.0 | 0.00 | 0.00 | 0.00 | 48 | 1014.0 |
| 20260510011819 | 47 | 148 | 3.0 | 5.0 | 0.00 | 0.00 | 0.00 | 48 | 1014.0 |
| 20260510011320 | 47 | 112 | 2.0 | 6.0 | 0.00 | 0.00 | 0.00 | 48 | 1014.1 |
| 20260510010818 | 47 | 199 | 2.0 | 6.0 | 0.00 | 0.00 | 0.00 | 48 | 1014.0 |
| 20260510010318 | 47 | 118 | 3.0 | 6.0 | 0.00 | 0.00 | 0.00 | 48 | 1014.1 |
| 20260510005318 | 48 | 162 | 1.0 | 6.0 | 0.00 | 0.00 | 0.00 | 47 | 1014.0 |
| 20260510004818 | 48 | 180 | 2.0 | 6.0 | 0.00 | 0.00 | 0.00 | 46 | 1013.5 |
| 20260510004318 | 48 | 161 | 6.0 | 8.0 | 0.00 | 0.00 | 0.00 | 45 | 1013.8 |
| 20260510003820 | 48 | 135 | 3.0 | 10.0 | 0.00 | 0.00 | 0.00 | 45 | 1013.7 |
| 20260510003319 | 48 | 208 | 5.0 | 10.0 | 0.00 | 0.00 | 0.00 | 45 | 1013.7 |
| 20260510002820 | 49 | 138 | 7.0 | 7.0 | 0.00 | 0.00 | 0.00 | 45 | 1013.7 |
| 20260510002318 | 49 | 180 | 0.0 | 7.0 | 0.00 | 0.00 | 0.00 | 45 | 1013.3 |
| 20260510001818 | 50 | 178 | 4.0 | 7.0 | 0.00 | 0.00 | 0.00 | 43 | 1013.5 |
| 20260510001318 | 51 | 195 | 2.0 | 6.0 | 0.00 | 0.00 | 0.00 | 43 | 1013.4 |
| 20260510000819 | 51 | 188 | 0.0 | 6.0 | 0.00 | 0.00 | 0.00 | 41 | 1013.5 |
| 20260510000319 | 52 | 88 | 6.0 | 8.0 | 0.00 | 0.00 | 0.00 | 41 | 1013.4 |
| 20260509235818 | 51 | 152 | 4.0 | 9.0 | 0.00 | 0.00 | 0.00 | 41 | 1013.5 |
| 20260509235320 | 51 | 353 | 2.0 | 9.0 | 0.00 | 0.00 | 0.00 | 41 | 1013.4 |
| 20260509234318 | 49 | 200 | 3.0 | 12.0 | 0.00 | 0.00 | 0.00 | 43 | 1013.3 |
| 20260509233818 | 51 | 187 | 4.0 | 10.0 | 0.00 | 0.00 | 0.00 | 42 | 1013.3 |
| 20260509233318 | 50 | 184 | 2.0 | 10.0 | 0.00 | 0.00 | 0.00 | 42 | 1013.2 |
| 20260509232820 | 50 | 165 | 4.0 | 7.0 | 0.00 | 0.00 | 0.00 | 42 | 1013.2 |
| 20260509232318 | 50 | 147 | 2.0 | 9.0 | 0.00 | 0.00 | 0.00 | 43 | 1013.3 |
| 20260509231818 | 49 | 233 | 3.0 | 9.0 | 0.00 | 0.00 | 0.00 | 43 | 1013.2 |
| 20260509231319 | 49 | 183 | 4.0 | 7.0 | 0.00 | 0.00 | 0.00 | 43 | 1013.1 |
| 20260509230816 | 49 | 126 | 3.0 | 7.0 | 0.00 | 0.00 | 0.00 | 42 | 1012.9 |
| 20260509230317 | 50 | 146 | 2.0 | 6.0 | 0.00 | 0.00 | 0.00 | 43 | 1012.9 |
| 20260509224316 | 50 | 157 | 3.0 | 9.0 | 0.00 | 0.00 | 0.00 | 44 | 1012.9 |
| 20260509223817 | 50 | 110 | 6.0 | 9.0 | 0.00 | 0.00 | 0.00 | 42 | 1013.0 |
| 20260509223316 | 51 | 180 | 2.0 | 6.0 | 0.00 | 0.00 | 0.00 | 43 | 1012.8 |
| 20260509222817 | 50 | 188 | 5.0 | 7.0 | 0.00 | 0.00 | 0.00 | 43 | 1012.7 |
| 20260509222316 | 50 | 186 | 7.0 | 7.0 | 0.00 | 0.00 | 0.00 | 42 | 1013.0 |
| 20260509221812 | 50 | 140 | 3.0 | 8.0 | 0.00 | 0.00 | 0.00 | 43 | 1012.8 |
| 20260509221312 | 50 | 176 | 4.0 | 8.0 | 0.00 | 0.00 | 0.00 | 43 | 1012.9 |
| 20260509220813 | 50 | 172 | 0.0 | 7.0 | 0.00 | 0.00 | 0.00 | 43 | 1012.6 |
| 20260509220314 | 51 | 178 | 3.0 | 8.0 | 0.00 | 0.00 | 0.00 | 43 | 1012.7 |
| 20260509215801 | 51 | 237 | 1.0 | 8.0 | 0.00 | 0.00 | 0.00 | 41 | 1012.7 |
| 20260509215306 | 52 | 123 | 3.0 | 6.0 | 0.00 | 0.00 | 0.00 | 41 | 1012.5 |
| 20260509214302 | 51 | 180 | 2.0 | 10.0 | 0.00 | 0.00 | 0.00 | 41 | 1012.3 |
| 20260509213800 | 51 | 150 | 3.0 | 13.0 | 0.00 | 0.00 | 0.00 | 42 | 1012.6 |
| 20260509213302 | 51 | 155 | 5.0 | 13.0 | 0.00 | 0.00 | 0.00 | 40 | 1012.6 |
| 20260509212802 | 52 | 184 | 4.0 | 11.0 | 0.00 | 0.00 | 0.00 | 40 | 1012.5 |
| 20260509212306 | 52 | 169 | 4.0 | 10.0 | 0.00 | 0.00 | 0.00 | 40 | 1012.5 |
| 20260509211804 | 50 | 228 | 2.0 | 9.0 | 0.00 | 0.00 | 0.00 | 43 | 1012.5 |
| 20260509211307 | 50 | 174 | 8.0 | 10.0 | 0.00 | 0.00 | 0.00 | 42 | 1012.2 |
| 20260509210805 | 50 | 157 | 1.0 | 10.0 | 0.00 | 0.00 | 0.00 | 44 | 1012.5 |
| 20260509210306 | 51 | 171 | 5.0 | 10.0 | 0.00 | 0.00 | 0.00 | 42 | 1012.5 |
| 20260509205801 | 51 | 202 | 5.0 | 11.0 | 0.00 | 0.00 | 0.00 | 42 | 1012.5 |
| 20260509205306 | 51 | 159 | 7.0 | 11.0 | 0.00 | 0.00 | 0.00 | 41 | 1012.2 |
| 20260509204805 | 53 | 206 | 4.0 | 9.0 | 0.00 | 0.00 | 0.00 | 41 | 1012.2 |
| 20260509204303 | 51 | 195 | 3.0 | 10.0 | 0.00 | 0.00 | 0.00 | 42 | 1012.1 |
| 20260509203801 | 51 | 182 | 3.0 | 10.0 | 0.00 | 0.00 | 0.00 | 43 | 1012.1 |
| 20260509203302 | 51 | 137 | 3.0 | 8.0 | 0.00 | 0.00 | 0.00 | 43 | 1012.1 |
| 20260509202801 | 51 | 148 | 3.0 | 12.0 | 0.00 | 0.00 | 0.00 | 43 | 1012.1 |
| 20260509202306 | 51 | 206 | 5.0 | 12.0 | 0.00 | 0.00 | 0.00 | 41 | 1012.0 |
| 20260509201802 | 52 | 207 | 3.0 | 11.0 | 0.00 | 0.00 | 0.00 | 42 | 1012.2 |
| 20260509201303 | 52 | 90 | 0.0 | 10.0 | 0.00 | 0.00 | 0.00 | 43 | 1012.0 |
| 20260509200801 | 53 | 180 | 2.0 | 11.0 | 0.00 | 0.00 | 0.00 | 42 | 1011.7 |
| 20260509200304 | 53 | 165 | 4.0 | 11.0 | 0.00 | 0.00 | 0.00 | 41 | 1011.9 |
| 20260509195306 | 54 | 178 | 4.0 | 9.0 | 0.00 | 0.00 | 0.00 | 38 | 1011.8 |
| 20260509194801 | 54 | 108 | 5.0 | 9.0 | 0.00 | 0.00 | 0.00 | 38 | 1011.7 |
| 20260509194302 | 53 | 180 | 2.0 | 9.0 | 0.00 | 0.00 | 0.00 | 40 | 1011.7 |
| 20260509193304 | 52 | 140 | 5.0 | 10.0 | 0.00 | 0.00 | 0.00 | 41 | 1011.5 |
| 20260509192255 | 54 | 188 | 3.0 | 13.0 | 0.00 | 0.00 | 0.00 | 40 | 1011.4 |
| 20260509191755 | 52 | 106 | 2.0 | 13.0 | 0.00 | 0.00 | 0.00 | 42 | 1011.7 |
| 20260509191255 | 55 | 123 | 0.0 | 9.0 | 0.00 | 0.00 | 0.00 | 39 | 1011.6 |
| 20260509190752 | 54 | 154 | 4.0 | 8.0 | 0.00 | 0.00 | 0.00 | 40 | 1011.5 |
| 20260509190252 | 54 | 193 | 7.0 | 8.0 | 0.00 | 0.00 | 0.00 | 39 | 1011.4 |
| 20260509185751 | 54 | 165 | 3.0 | 7.0 | 0.00 | 0.00 | 0.00 | 40 | 1011.4 |
| 20260509185247 | 53 | 180 | 2.0 | 10.0 | 0.00 | 0.00 | 0.00 | 42 | 1011.4 |
| 20260509184743 | 50 | 245 | 2.0 | 10.0 | 0.00 | 0.00 | 0.00 | 44 | 1011.2 |
| 20260509183740 | 52 | 180 | 3.0 | 10.0 | 0.00 | 0.00 | 0.00 | 41 | 1011.3 |
| 20260509183242 | 51 | 129 | 3.0 | 9.0 | 0.00 | 0.00 | 0.00 | 43 | 1011.2 |
| 20260509182733 | 52 | 72 | 2.0 | 9.0 | 0.00 | 0.00 | 0.00 | 44 | 1011.2 |
| 20260509182231 | 51 | 157 | 3.0 | 10.0 | 0.00 | 0.00 | 0.00 | 43 | 1011.5 |
| 20260509181730 | 52 | 129 | 3.0 | 10.0 | 0.00 | 0.00 | 0.00 | 43 | 1011.2 |
| 20260509180730 | 50 | 182 | 3.0 | 9.0 | 0.00 | 0.00 | 0.00 | 44 | 1011.0 |
| 20260509180232 | 51 | 138 | 5.0 | 8.0 | 0.00 | 0.00 | 0.00 | 42 | 1011.0 |
| 20260509175728 | 51 | 144 | 4.0 | 8.0 | 0.00 | 0.00 | 0.00 | 42 | 1011.2 |
| 20260509175230 | 53 | 162 | 3.0 | 9.0 | 0.00 | 0.00 | 0.00 | 43 | 1011.2 |
| 20260509174732 | 51 | 168 | 3.0 | 10.0 | 0.00 | 0.00 | 0.00 | 42 | 1011.2 |
| 20260509174233 | 50 | 191 | 1.0 | 10.0 | 0.00 | 0.00 | 0.00 | 43 | 1010.7 |
| 20260509173732 | 50 | 171 | 5.0 | 10.0 | 0.00 | 0.00 | 0.00 | 44 | 1011.0 |
| 20260509173232 | 50 | 187 | 5.0 | 8.0 | 0.00 | 0.00 | 0.00 | 43 | 1010.7 |
| 20260509172732 | 51 | 240 | 2.0 | 8.0 | 0.00 | 0.00 | 0.00 | 44 | 1011.2 |
| 20260509172225 | 51 | 110 | 2.0 | 7.0 | 0.00 | 0.00 | 0.00 | 43 | 1010.9 |
| 20260509171716 | 51 | 126 | 3.0 | 10.0 | 0.00 | 0.00 | 0.00 | 43 | 1010.8 |
| 20260509170713 | 50 | 168 | 5.0 | 8.0 | 0.00 | 0.00 | 0.00 | 43 | 1010.8 |
| 20260509170215 | 50 | 180 | 3.0 | 13.0 | 0.00 | 0.00 | 0.00 | 43 | 1010.7 |
| 20260509165713 | 48 | 166 | 7.0 | 13.0 | 0.00 | 0.00 | 0.00 | 43 | 1010.8 |
| 20260509165215 | 51 | 164 | 3.0 | 7.0 | 0.00 | 0.00 | 0.00 | 42 | 1010.9 |
| 20260509164713 | 50 | 160 | 3.0 | 9.0 | 0.00 | 0.00 | 0.00 | 41 | 1010.7 |
| 20260509163713 | 49 | 208 | 5.0 | 9.0 | 0.00 | 0.00 | 0.00 | 44 | 1011.0 |
| 20260509163213 | 49 | 83 | 4.0 | 9.0 | 0.00 | 0.00 | 0.00 | 45 | 1010.8 |
| 20260509161713 | 49 | 30 | 2.0 | 7.0 | 0.00 | 0.00 | 0.00 | 45 | 1010.6 |
| 20260509160713 | 49 | 139 | 4.0 | 8.0 | 0.00 | 0.00 | 0.00 | 45 | 1010.7 |
| 20260509160213 | 49 | 180 | 2.0 | 9.0 | 0.00 | 0.00 | 0.00 | 46 | 1010.6 |
| 20260509155717 | 48 | 127 | 2.0 | 9.0 | 0.00 | 0.00 | 0.00 | 47 | 1010.3 |
| 20260509155213 | 47 | 157 | 6.0 | 9.0 | 0.00 | 0.00 | 0.00 | 45 | 1010.6 |
| 20260509154711 | 48 | 95 | 4.0 | 13.0 | 0.00 | 0.00 | 0.00 | 45 | 1010.2 |
| 20260509154211 | 47 | 135 | 4.0 | 13.0 | 0.00 | 0.00 | 0.00 | 48 | 1010.3 |
| 20260509153710 | 48 | 146 | 4.0 | 10.0 | 0.00 | 0.00 | 0.00 | 47 | 1010.3 |
| 20260509153210 | 47 | 180 | 4.0 | 10.0 | 0.00 | 0.00 | 0.00 | 47 | 1010.2 |
| 20260509152712 | 46 | 192 | 5.0 | 9.0 | 0.00 | 0.00 | 0.00 | 48 | 1010.3 |
| 20260509152212 | 46 | 148 | 0.0 | 8.0 | 0.00 | 0.00 | 0.00 | 48 | 1010.4 |
| 20260509151710 | 46 | 145 | 8.0 | 8.0 | 0.00 | 0.00 | 0.00 | 48 | 1010.2 |
| 20260509151212 | 47 | 203 | 3.0 | 8.0 | 0.00 | 0.00 | 0.00 | 48 | 1010.1 |
| 20260509150710 | 46 | 123 | 4.0 | 8.0 | 0.00 | 0.00 | 0.00 | 49 | 1010.3 |
| 20260509150212 | 46 | 106 | 2.0 | 9.0 | 0.00 | 0.00 | 0.00 | 48 | 1010.2 |
| 20260509145708 | 46 | 159 | 3.0 | 9.0 | 0.00 | 0.00 | 0.00 | 48 | 1010.1 |
| 20260509145209 | 46 | 168 | 3.0 | 9.0 | 0.00 | 0.00 | 0.00 | 48 | 1010.1 |
| 20260509144704 | 46 | 90 | 0.0 | 8.0 | 0.00 | 0.00 | 0.00 | 49 | 1010.0 |
| 20260509144204 | 45 | 210 | 2.0 | 8.0 | 0.00 | 0.00 | 0.00 | 48 | 1010.3 |
| 20260509143704 | 46 | 158 | 4.0 | 13.0 | 0.00 | 0.00 | 0.00 | 48 | 1010.0 |
| 20260509143205 | 44 | 127 | 2.0 | 13.0 | 0.00 | 0.00 | 0.00 | 49 | 1010.1 |
| 20260509142203 | 45 | 180 | 2.0 | 9.0 | 0.00 | 0.00 | 0.00 | 49 | 1010.0 |
| 20260509141703 | 45 | 127 | 3.0 | 8.0 | 0.00 | 0.00 | 0.00 | 49 | 1009.5 |
| 20260509141152 | 46 | 75 | 2.0 | 7.0 | 0.00 | 0.00 | 0.00 | 52 | 1009.9 |
| 20260509140644 | 45 | 154 | 0.0 | 10.0 | 0.00 | 0.00 | 0.00 | 52 | 1009.6 |
| 20260509140144 | 44 | 197 | 2.0 | 10.0 | 0.00 | 0.00 | 0.00 | 53 | 1009.6 |
| 20260509135641 | 44 | 176 | 2.0 | 10.0 | 0.00 | 0.00 | 0.00 | 54 | 1009.8 |
| 20260509135140 | 43 | 140 | 3.0 | 11.0 | 0.00 | 0.00 | 0.00 | 55 | 1009.6 |
| 20260509134631 | 43 | 185 | 3.0 | 11.0 | 0.00 | 0.00 | 0.00 | 55 | 1009.3 |
| 20260509134130 | 44 | 148 | 3.0 | 6.0 | 0.00 | 0.00 | 0.00 | 58 | 1009.3 |
| 20260509133629 | 43 | 155 | 3.0 | 7.0 | 0.00 | 0.00 | 0.00 | 58 | 1009.4 |
| 20260509133130 | 42 | 178 | 3.0 | 7.0 | 0.00 | 0.00 | 0.00 | 57 | 1009.3 |
| 20260509132629 | 42 | 108 | 5.0 | 7.0 | 0.00 | 0.00 | 0.00 | 57 | 1009.2 |
| 20260509132130 | 42 | 157 | 1.0 | 6.0 | 0.00 | 0.00 | 0.00 | 58 | 1009.2 |
| 20260509131130 | 41 | 166 | 3.0 | 7.0 | 0.00 | 0.00 | 0.00 | 60 | 1009.1 |
| 20260509125629 | 40 | 112 | 2.0 | 7.0 | 0.00 | 0.00 | 0.00 | 62 | 1008.5 |
| 20260509125130 | 40 | 123 | 1.0 | 5.0 | 0.00 | 0.00 | 0.00 | 62 | 1008.5 |
| 20260509124130 | 39 | 161 | 3.0 | 9.0 | 0.00 | 0.00 | 0.00 | 62 | 1008.5 |
| 20260509123630 | 39 | 150 | 2.0 | 8.0 | 0.00 | 0.00 | 0.00 | 63 | 1008.3 |
| 20260509123129 | 39 | 158 | 6.0 | 8.0 | 0.00 | 0.00 | 0.00 | 62 | 1008.3 |
| 20260509122629 | 39 | 127 | 5.0 | 7.0 | 0.00 | 0.00 | 0.00 | 62 | 1008.3 |
| 20260509122130 | 39 | 90 | 1.0 | 6.0 | 0.00 | 0.00 | 0.00 | 62 | 1007.8 |
| 20260509121628 | 38 | 96 | 2.0 | 6.0 | 0.00 | 0.00 | 0.00 | 62 | 1007.9 |
| 20260509121132 | 38 | 176 | 0.0 | 5.0 | 0.00 | 0.00 | 0.00 | 61 | 1007.9 |
| 20260509120630 | 38 | 124 | 2.0 | 4.0 | 0.00 | 0.00 | 0.00 | 62 | 1008.0 |
| 20260509120130 | 39 | 182 | 3.0 | 5.0 | 0.00 | 0.00 | 0.00 | 62 | 1007.9 |